Regional Weather Roundup
Issued by NWS

Home | Current Version | Previous Version | Graphics & Text | Print | Product List | Glossary On
Versions: 1 2 3 4 5 6 7 8 9 10 11 12 13 14 15 16 17 18 19 20 21 22 23 24 25 26 27 28 29 30 31 32 33 34 35 36 37 38 39 40 41 42 43 44 45 46 47 48 49 50
000
ASUS45 KABQ 260701
RWRNM
NEW MEXICO REGIONAL WEATHER ROUNDUP
NATIONAL WEATHER SERVICE ALBUQUERQUE NM
100 AM MDT WED JUL 26 2017

NOTE: "FAIR" MEANS FEW OR NO CLOUDS BELOW 12,000 FEET AGL WITH NO
       SIGNIFICANT WEATHER OR OBSTRUCTIONS TO VISION.

      THIS PRODUCT IS RELEASED AS TWO VERSIONS.  ONE VERSION NEAR
      THE TOP OF THE HOUR CONTAINING PRELIMINARY DATA FROM ALBUQUERQUE
      AND OTHER STATIONS.  A FINAL VERSION WITH ADDITIONAL DATA IS
      ISSUED ABOUT 10 MINUTES AFTER THE HOUR.

NMZ501-503-504-510>518-260800-
NORTHWEST PLATEAU/NORTHCENTRAL MOUNTAINS

CITY           SKY/WX    TMP DP  RH WIND       PRES   REMARKS
FARMINGTON     MOCLDY    66  64  93 N9        30.22S
LOS ALAMOS     FAIR      69  53  56 CALM      30.35F
SANTA FE       FAIR      67  60  78 N7        30.27F
TAOS           FAIR      61  50  67 S8        30.35S
ANGEL FIRE     FAIR      58  51  77 W3        30.44R

$$
NMZ402-403-502-505>509-260800-
WESTCENTRAL MOUNTAINS/SOUTHWEST MOUNTAINS

CITY           SKY/WX    TMP DP  RH WIND       PRES   REMARKS
GALLUP         FAIR      63  56  78 S5        30.32R
GRANTS         FAIR      60  56  85 CALM      30.34S
SILVER CITY    FAIR      67  61  80 NW8       30.25S

$$
NMZ407-409-411-412-260800-
SOUTHERN DESERTS

CITY           SKY/WX    TMP DP  RH WIND       PRES   REMARKS
DEMING         FAIR      76  65  68 SW5       30.16S
LAS CRUCES     FAIR      75  64  68 SW6       30.17F
HOLLOMAN AFB   FAIR      83  58  42 S8        30.15R
ALAMOGORDO     FAIR      81  55  41 S9        30.15S
T OR C         MOCLDY    77  58  51 NW8       30.17R

$$
NMZ519>523-260800-
CENTRAL VALLEYS/CENTRAL HIGHLANDS

CITY           SKY/WX    TMP DP  RH WIND       PRES   REMARKS
ALBUQUERQUE    FAIR      76  56  49 S5        30.22S
DOUBLE EAGLE   FAIR      63  58  81 W3        30.25F
CLINES CORNERS FAIR      64  51  62 SW8       30.33F
BELEN          NOT AVBL
SOCORRO        FAIR      73  61  66 CALM      30.19S

$$
NMZ524>526-539-540-260800-
SOUTHCENTRAL MOUNTAINS

CITY           SKY/WX    TMP DP  RH WIND       PRES   REMARKS
RUIDOSO        FAIR      66  55  68 SW9       30.35F

$$
NMZ527>531-260800-
NORTHEAST HIGHLANDS/NORTHEAST PLAINS

CITY           SKY/WX    TMP DP  RH WIND       PRES   REMARKS
LAS VEGAS      FAIR      62  55  77 S8        30.29F
RATON          CLOUDY    69  59  70 N7        30.23S
CLAYTON        FAIR      76  57  51 S15       30.12F

$$
NMZ532>537-260800-
EASTCENTRAL PLAINS

CITY           SKY/WX    TMP DP  RH WIND       PRES   REMARKS
SANTA ROSA     FAIR      73  57  56 S5        30.15R
TUCUMCARI      FAIR      83  56  39 S15       30.07F
CANNON AFB     FAIR      77  58  51 S10       30.17R
CLOVIS AIRPORT FAIR      73  59  61 S10       30.16R

$$
NMZ028-029-538-260800-
SOUTHEAST PLAINS

CITY           SKY/WX    TMP DP  RH WIND       PRES   REMARKS
ROSWELL        FAIR      81  58  45 S14       30.10S
ARTESIA        FAIR      82  61  47 S13       30.11S
CARLSBAD       FAIR      80  64  58 S7        30.08S
HOBBS          FAIR      77  57  50 S9        30.14F


$$




USA.gov is the U.S. government's official web portal to all federal, state and local government web resources and services.